User: anonymous
Location: Unspecified
(0.0000°N, 0.0000°E)
Time: 15:10:28
(UTC+02:00)
Language:

ARIANE 44L R/B - Orbit

View from above orbital plane
View from above orbital plane
View from above satellite
View from above satellite

Ground track
Ground track

The orbit data is extracted from the following two-line orbital elements,

1 26901U 01039B   14206.39998073  .00007584  00000-0  18123-2 0   703
2 26901 007.3888 311.0288 6993825 001.8607 007.4259 02.65111973114661
Epoch (UTC): 25 July 2014 09:35:58
Eccentricity: 0.6993825
inclination: 7.3888°
perigee height: 251 km
apogee height: 31096 km
right ascension of ascending node: 311.0288°
argument of perigee: 1.8607°
revolutions per day: 2.65111973
mean anomaly at epoch: 7.4259°
orbit number at epoch: 11466

The dashed part of the orbit path shows where the satellite is in the earth's shadow,  

DLR